FDB9DV OMDB-ORER

Flight info

Callsign FDB9DV
Flight time N/A
Altitude 34000
Route RIDAP M557 TUMAK L602 ALPET L718 TAGRU/N0446F350 DCT OTALO DCT RER
Aircraft B38M/M-SDE1E2E3FGHIJ1LM3ORVWXYZ/HB1

Departure

Time 2026-04-20 05:51
Airport Dubai International Airport (OMDB)

Arrival

Time N/A
Airport Erbil International Airport (ORER)
Time Latitude Longitude Altitude Speed Heading
2026-04-20 05:24 25.26715 55.35334 -4 ft 0 kts 31°
2026-04-20 05:35 25.26712 55.35332 24 ft 3 kts 31°
2026-04-20 05:35 25.26696 55.35321 25 ft 4 kts 31°
2026-04-20 05:35 25.26677 55.35309 25 ft 4 kts 32°
2026-04-20 05:36 25.26659 55.35289 26 ft 4 kts 66°
2026-04-20 05:36 25.26658 55.35265 25 ft 4 kts 120°
2026-04-20 05:36 25.26670 55.35242 26 ft 2 kts 121°
2026-04-20 05:36 25.26671 55.35241 25 ft 2 kts 121°
2026-04-20 05:41 25.26671 55.35242 24 ft 1 kts 121°
2026-04-20 05:42 25.26665 55.35252 27 ft 3 kts 121°
2026-04-20 05:42 25.26651 55.35278 24 ft 5 kts 121°
2026-04-20 05:42 25.26629 55.35317 25 ft 7 kts 121°
2026-04-20 05:42 25.26598 55.35372 25 ft 9 kts 121°
2026-04-20 05:43 25.26560 55.35441 26 ft 12 kts 121°
2026-04-20 05:43 25.26503 55.35483 26 ft 11 kts 182°
2026-04-20 05:43 25.26429 55.35502 24 ft 12 kts 135°
2026-04-20 05:43 25.26381 55.35585 27 ft 14 kts 122°
2026-04-20 05:44 25.26325 55.35684 25 ft 16 kts 122°
2026-04-20 05:44 25.26262 55.35795 25 ft 18 kts 122°
2026-04-20 05:44 25.26192 55.35919 25 ft 20 kts 122°
2026-04-20 05:44 25.26115 55.36054 24 ft 21 kts 122°
2026-04-20 05:45 25.26034 55.36199 27 ft 23 kts 121°
2026-04-20 05:45 25.25949 55.36353 26 ft 24 kts 121°
2026-04-20 05:45 25.25857 55.36516 28 ft 26 kts 122°
2026-04-20 05:45 25.25759 55.36689 25 ft 27 kts 122°
2026-04-20 05:46 25.25656 55.36871 26 ft 29 kts 121°
2026-04-20 05:46 25.25550 55.37061 26 ft 29 kts 122°
2026-04-20 05:46 25.25443 55.37251 27 ft 30 kts 122°
2026-04-20 05:46 25.25334 55.37446 26 ft 30 kts 122°
2026-04-20 05:47 25.25222 55.37646 27 ft 31 kts 122°
2026-04-20 05:47 25.25112 55.37841 25 ft 29 kts 122°
2026-04-20 05:47 25.25008 55.38024 24 ft 22 kts 122°
2026-04-20 05:47 25.24961 55.38109 26 ft 8 kts 128°
2026-04-20 05:48 25.24912 55.38121 24 ft 6 kts 202°
2026-04-20 05:48 25.24900 55.38114 28 ft 0 kts 211°
2026-04-20 05:49 25.24898 55.38112 28 ft 2 kts 211°
2026-04-20 05:50 25.24857 55.38085 27 ft 10 kts 211°
2026-04-20 05:50 25.24814 55.38029 27 ft 11 kts 272°
2026-04-20 05:50 25.24853 55.37941 28 ft 20 kts 302°
2026-04-20 05:50 25.25022 55.37637 29 ft 79 kts 301°
2026-04-20 05:51 25.25419 55.36921 27 ft 137 kts 301°
2026-04-20 05:51 25.25984 55.35885 108 ft 172 kts 301°
2026-04-20 05:51 25.26600 55.34765 733 ft 171 kts 300°
2026-04-20 05:51 25.27219 55.33626 1348 ft 174 kts 300°
2026-04-20 05:52 25.27869 55.32445 1863 ft 187 kts 301°
2026-04-20 05:52 25.28593 55.31164 2277 ft 208 kts 302°
2026-04-20 05:52 25.29391 55.29749 2726 ft 228 kts 303°
2026-04-20 05:52 25.30315 55.28305 3544 ft 232 kts 305°
2026-04-20 05:53 25.31247 55.26837 4390 ft 234 kts 305°
2026-04-20 05:53 25.32177 55.25355 5198 ft 235 kts 306°
2026-04-20 05:53 25.33122 55.23856 5557 ft 239 kts 306°
2026-04-20 05:53 25.34073 55.22363 5669 ft 237 kts 306°
2026-04-20 05:54 25.35024 55.20866 6149 ft 237 kts 305°
2026-04-20 05:54 25.35710 55.19161 6667 ft 255 kts 280°
2026-04-20 05:54 25.35741 55.17131 7092 ft 273 kts 270°
2026-04-20 05:54 25.35685 55.14995 7707 ft 279 kts 270°
2026-04-20 05:55 25.35621 55.12845 8491 ft 282 kts 270°
2026-04-20 05:55 25.35549 55.10664 9247 ft 285 kts 270°
2026-04-20 05:55 25.35474 55.08471 10009 ft 288 kts 270°
2026-04-20 05:55 25.35394 55.06215 10518 ft 302 kts 269°
2026-04-20 05:56 25.35309 55.03821 10864 ft 320 kts 269°
2026-04-20 05:56 25.35218 55.01320 11415 ft 328 kts 269°
2026-04-20 05:56 25.35127 54.98793 12202 ft 331 kts 269°
2026-04-20 05:56 25.35033 54.96263 12911 ft 336 kts 269°
2026-04-20 05:57 25.34937 54.93668 13667 ft 340 kts 269°
2026-04-20 05:57 25.34929 54.91049 14330 ft 343 kts 279°
2026-04-20 05:57 25.35546 54.88510 15073 ft 343 kts 288°
2026-04-20 05:57 25.36252 54.85969 15696 ft 349 kts 287°
2026-04-20 05:58 25.36976 54.83397 16407 ft 352 kts 287°
2026-04-20 05:58 25.37712 54.80803 16692 ft 356 kts 287°
2026-04-20 05:58 25.38454 54.78202 16819 ft 355 kts 287°
2026-04-20 05:58 25.39200 54.75590 16882 ft 356 kts 287°
2026-04-20 05:59 25.39944 54.72986 16882 ft 355 kts 287°
2026-04-20 05:59 25.40690 54.70383 16898 ft 355 kts 287°
2026-04-20 05:59 25.41428 54.67779 16874 ft 354 kts 287°
2026-04-20 05:59 25.42167 54.65182 16894 ft 355 kts 287°
2026-04-20 06:00 25.42910 54.62574 16883 ft 355 kts 288°
2026-04-20 06:00 25.43678 54.59980 16887 ft 355 kts 288°
2026-04-20 06:00 25.44447 54.57387 16909 ft 357 kts 288°
2026-04-20 06:00 25.45216 54.54788 17520 ft 357 kts 288°
2026-04-20 06:01 25.45990 54.52167 18193 ft 360 kts 287°
2026-04-20 06:01 25.46775 54.49522 18721 ft 363 kts 287°
2026-04-20 06:01 25.47558 54.46862 19331 ft 364 kts 287°
2026-04-20 06:01 25.48346 54.44186 19906 ft 367 kts 287°
2026-04-20 06:02 25.49127 54.41533 20468 ft 369 kts 287°
2026-04-20 06:02 25.49923 54.38827 21023 ft 371 kts 287°
2026-04-20 06:02 25.50725 54.36101 21568 ft 374 kts 287°
2026-04-20 06:02 25.51532 54.33357 22103 ft 377 kts 287°
2026-04-20 06:03 25.52346 54.30584 22642 ft 380 kts 287°
2026-04-20 06:03 25.53161 54.27806 23161 ft 382 kts 287°
2026-04-20 06:03 25.53986 54.24997 23640 ft 385 kts 287°
2026-04-20 06:03 25.54818 54.22162 24081 ft 387 kts 287°
2026-04-20 06:04 25.55653 54.19320 24522 ft 390 kts 287°
2026-04-20 06:04 25.56495 54.16449 24924 ft 393 kts 287°
2026-04-20 06:04 25.57342 54.13557 25331 ft 396 kts 287°
2026-04-20 06:04 25.58194 54.10650 25735 ft 399 kts 287°
2026-04-20 06:05 25.59040 54.07753 26122 ft 402 kts 287°
2026-04-20 06:05 25.59889 54.04785 26523 ft 405 kts 287°
2026-04-20 06:05 25.60734 54.01824 26895 ft 407 kts 287°
2026-04-20 06:05 25.61592 53.98820 27272 ft 410 kts 287°
2026-04-20 06:06 25.62458 53.95789 27627 ft 414 kts 287°
2026-04-20 06:06 25.63329 53.92747 27991 ft 416 kts 286°
2026-04-20 06:06 25.64201 53.89674 28380 ft 419 kts 286°
2026-04-20 06:06 25.65081 53.86579 28742 ft 422 kts 287°
2026-04-20 06:07 25.65963 53.83476 29106 ft 424 kts 287°
2026-04-20 06:07 25.66852 53.80350 29464 ft 427 kts 287°
2026-04-20 06:07 25.67747 53.77197 29825 ft 430 kts 287°
2026-04-20 06:07 25.68638 53.74056 30140 ft 432 kts 287°
2026-04-20 06:08 25.69538 53.70860 30474 ft 433 kts 287°
2026-04-20 06:08 25.70439 53.67661 30820 ft 434 kts 287°
2026-04-20 06:08 25.71338 53.64466 31151 ft 436 kts 287°
2026-04-20 06:08 25.72243 53.61244 31479 ft 437 kts 287°
2026-04-20 06:09 25.73148 53.58020 31811 ft 438 kts 287°
2026-04-20 06:09 25.74054 53.54789 32183 ft 438 kts 287°
2026-04-20 06:09 25.74960 53.51562 32606 ft 437 kts 287°
2026-04-20 06:09 25.75859 53.48362 33051 ft 436 kts 287°
2026-04-20 06:10 25.76755 53.45170 33546 ft 433 kts 287°
2026-04-20 06:10 25.77640 53.42014 33866 ft 433 kts 287°
2026-04-20 06:10 25.79407 53.35707 33883 ft 423 kts 287°
2026-04-20 06:11 25.81145 53.29490 33879 ft 422 kts 287°
2026-04-20 06:11 25.82878 53.23278 33875 ft 423 kts 287°
2026-04-20 06:12 25.84818 53.17082 33881 ft 427 kts 294°
2026-04-20 06:12 25.87254 53.11057 33877 ft 427 kts 294°
2026-04-20 06:13 25.89700 53.05040 33884 ft 427 kts 294°
2026-04-20 06:13 25.92148 52.99016 33882 ft 428 kts 294°
2026-04-20 06:14 25.94587 52.93002 33888 ft 429 kts 294°
2026-04-20 06:14 25.97036 52.86961 33884 ft 429 kts 294°
2026-04-20 06:15 25.99478 52.80925 33886 ft 429 kts 294°
2026-04-20 06:15 26.01951 52.74891 33887 ft 428 kts 296°
2026-04-20 06:16 26.04598 52.69037 33884 ft 427 kts 296°
2026-04-20 06:16 26.07249 52.63111 33890 ft 428 kts 296°
2026-04-20 06:17 26.08926 52.59353 33891 ft 428 kts 296°
2026-04-20 06:17 26.11582 52.53413 33889 ft 428 kts 296°
2026-04-20 06:18 26.14248 52.47508 33885 ft 426 kts 296°
2026-04-20 06:18 26.16897 52.41627 33896 ft 425 kts 296°
2026-04-20 06:19 26.19535 52.35761 33896 ft 427 kts 296°
2026-04-20 06:19 26.22176 52.29830 33889 ft 427 kts 295°
2026-04-20 06:20 26.24756 52.23874 33889 ft 427 kts 295°
2026-04-20 06:20 26.27334 52.17929 33889 ft 426 kts 295°
2026-04-20 06:21 26.29916 52.11970 33889 ft 426 kts 295°
2026-04-20 06:21 26.32491 52.06019 33892 ft 426 kts 295°
2026-04-20 06:22 26.35066 52.00057 33892 ft 427 kts 295°
2026-04-20 06:22 26.37199 51.95098 33894 ft 427 kts 293°
2026-04-20 06:23 26.39677 51.87912 33897 ft 427 kts 291°
2026-04-20 06:23 26.41777 51.81712 33898 ft 427 kts 290°
2026-04-20 06:24 26.43858 51.75505 33899 ft 427 kts 290°
2026-04-20 06:24 26.45588 51.70344 33900 ft 428 kts 290°
2026-04-20 06:25 26.47668 51.64104 33902 ft 429 kts 290°
2026-04-20 06:25 26.49747 51.57868 33902 ft 429 kts 290°
2026-04-20 06:26 26.51826 51.51638 33914 ft 427 kts 289°
2026-04-20 06:26 26.53883 51.45428 33908 ft 426 kts 289°
2026-04-20 06:27 26.55939 51.39225 33907 ft 427 kts 289°
2026-04-20 06:27 26.58001 51.32995 33910 ft 428 kts 289°
2026-04-20 06:28 26.60056 51.26792 33907 ft 428 kts 289°
2026-04-20 06:28 26.62124 51.20549 33915 ft 428 kts 289°
2026-04-20 06:29 26.64186 51.14313 33910 ft 428 kts 289°
2026-04-20 06:29 26.66246 51.08070 33916 ft 428 kts 289°
2026-04-20 06:30 26.68300 51.01825 33915 ft 428 kts 288°
2026-04-20 06:30 26.70308 50.95559 33916 ft 428 kts 288°
2026-04-20 06:31 26.72314 50.89301 33919 ft 427 kts 288°
2026-04-20 06:31 26.74321 50.83027 33919 ft 429 kts 288°
2026-04-20 06:32 26.76329 50.76742 33925 ft 429 kts 288°
2026-04-20 06:32 26.78333 50.70455 33921 ft 429 kts 288°
2026-04-20 06:33 26.80755 50.64384 33914 ft 431 kts 305°
2026-04-20 06:33 26.84502 50.59135 33918 ft 432 kts 306°
2026-04-20 06:34 26.88285 50.53888 33927 ft 432 kts 306°
2026-04-20 06:35 26.94192 50.46310 33944 ft 434 kts 310°
2026-04-20 06:35 26.98326 50.41377 33939 ft 434 kts 310°
2026-04-20 06:36 27.02452 50.36414 33936 ft 435 kts 310°
2026-04-20 06:36 27.06582 50.31439 33933 ft 436 kts 310°
2026-04-20 06:37 27.10708 50.26464 33936 ft 435 kts 310°
2026-04-20 06:37 27.14833 50.21483 33939 ft 435 kts 309°
2026-04-20 06:37 27.17021 50.19183 33927 ft 440 kts 320°
2026-04-20 06:38 27.19541 50.17156 33934 ft 441 kts 320°
2026-04-20 06:38 27.24469 50.13061 33946 ft 440 kts 320°
2026-04-20 06:39 27.29373 50.09007 33935 ft 440 kts 320°
2026-04-20 06:39 27.34297 50.04936 33936 ft 440 kts 320°
2026-04-20 06:40 27.39128 50.00729 33937 ft 439 kts 318°
2026-04-20 06:40 27.43955 49.96487 33939 ft 440 kts 318°
2026-04-20 06:41 27.48775 49.92253 33938 ft 439 kts 318°
2026-04-20 06:41 27.53587 49.88021 33933 ft 440 kts 318°
2026-04-20 06:42 27.58744 49.84309 33905 ft 448 kts 339°
2026-04-20 06:42 27.61839 49.83735 33930 ft 457 kts 356°
2026-04-20 06:42 27.65032 49.84089 33949 ft 466 kts
2026-04-20 06:42 27.68115 49.85276 33925 ft 472 kts 24°
2026-04-20 06:43 27.70837 49.87340 33928 ft 477 kts 41°
2026-04-20 06:43 27.72961 49.90241 33936 ft 481 kts 59°
2026-04-20 06:43 27.74304 49.93690 33933 ft 483 kts 75°
2026-04-20 06:43 27.74796 49.97381 33933 ft 481 kts 92°
2026-04-20 06:44 27.74381 50.01093 33919 ft 477 kts 109°
2026-04-20 06:44 27.73084 50.04513 33923 ft 470 kts 125°
2026-04-20 06:44 27.71073 50.07375 33942 ft 463 kts 141°
2026-04-20 06:44 27.68522 50.09513 33933 ft 454 kts 156°
2026-04-20 06:45 27.65614 50.10788 33946 ft 445 kts 170°
2026-04-20 06:45 27.59640 50.12799 33966 ft 450 kts 166°
2026-04-20 06:46 27.53688 50.15031 33933 ft 451 kts 165°
2026-04-20 06:46 27.47734 50.17290 33937 ft 453 kts 165°
2026-04-20 06:46 27.44800 50.18603 33918 ft 457 kts 154°
2026-04-20 06:47 27.42153 50.20627 33958 ft 460 kts 148°
2026-04-20 06:47 27.36906 50.24799 33941 ft 462 kts 148°
2026-04-20 06:48 27.31706 50.28996 33933 ft 462 kts 148°
2026-04-20 06:48 27.26488 50.33216 33934 ft 462 kts 148°
2026-04-20 06:49 27.21263 50.37437 33933 ft 462 kts 148°
2026-04-20 06:49 27.16043 50.41650 33925 ft 463 kts 148°
2026-04-20 06:50 27.10802 50.45875 33931 ft 465 kts 148°
2026-04-20 06:50 27.05547 50.50105 33930 ft 465 kts 148°
2026-04-20 06:51 27.00313 50.54349 33923 ft 466 kts 144°
2026-04-20 06:51 26.98049 50.56965 33912 ft 471 kts 127°
2026-04-20 06:51 26.96440 50.60175 33937 ft 475 kts 115°
2026-04-20 06:52 26.93752 50.66966 33926 ft 477 kts 115°
2026-04-20 06:52 26.91147 50.73730 33918 ft 475 kts 115°
2026-04-20 06:53 26.88547 50.80535 33925 ft 475 kts 115°
2026-04-20 06:53 26.85938 50.87354 33915 ft 475 kts 115°
2026-04-20 06:54 26.83327 50.94168 33920 ft 476 kts 115°
2026-04-20 06:54 26.80735 51.00975 33914 ft 476 kts 115°
2026-04-20 06:55 26.78152 51.07748 33916 ft 476 kts 114°
2026-04-20 06:55 26.75906 51.14732 33917 ft 477 kts 111°
2026-04-20 06:56 26.73661 51.21708 33903 ft 476 kts 111°
2026-04-20 06:56 26.71404 51.28666 33907 ft 476 kts 111°
2026-04-20 06:57 26.69141 51.35633 33911 ft 476 kts 111°
2026-04-20 06:57 26.66876 51.42593 33910 ft 477 kts 111°
2026-04-20 06:58 26.64634 51.49573 33903 ft 476 kts 111°
2026-04-20 06:58 26.62393 51.56541 33886 ft 477 kts 111°
2026-04-20 06:59 26.60152 51.63511 33899 ft 475 kts 110°
2026-04-20 06:59 26.57920 51.70407 33893 ft 475 kts 111°
2026-04-20 07:00 26.55672 51.77358 33888 ft 476 kts 111°
2026-04-20 07:00 26.53414 51.84295 33903 ft 475 kts 110°
2026-04-20 07:01 26.51136 51.91225 33896 ft 474 kts 110°
2026-04-20 07:01 26.48845 51.98132 33889 ft 475 kts 111°
2026-04-20 07:02 26.46541 52.05068 33881 ft 476 kts 110°
2026-04-20 07:02 26.44242 52.12006 33893 ft 477 kts 110°
2026-04-20 07:03 26.41924 52.18901 33881 ft 477 kts 110°
2026-04-20 07:03 26.39604 52.25832 33881 ft 477 kts 110°
2026-04-20 07:04 26.37278 52.32765 33865 ft 477 kts 110°
2026-04-20 07:04 26.34851 52.39659 33877 ft 477 kts 114°
2026-04-20 07:05 26.32237 52.46462 33882 ft 477 kts 113°
2026-04-20 07:05 26.29642 52.53273 33879 ft 477 kts 113°
2026-04-20 07:06 26.27056 52.60055 33874 ft 475 kts 113°
2026-04-20 07:06 26.24468 52.66832 33876 ft 475 kts 113°
2026-04-20 07:07 26.21888 52.73575 33868 ft 477 kts 113°
2026-04-20 07:07 26.19290 52.80359 33873 ft 476 kts 113°
2026-04-20 07:08 26.16687 52.87142 33872 ft 476 kts 113°
2026-04-20 07:08 26.14085 52.93909 33873 ft 476 kts 113°
2026-04-20 07:09 26.11479 53.00678 33870 ft 476 kts 113°
2026-04-20 07:09 26.08956 53.07473 33868 ft 475 kts 112°
2026-04-20 07:10 26.06455 53.14276 33872 ft 475 kts 112°
2026-04-20 07:10 26.03950 53.21069 33873 ft 475 kts 112°
2026-04-20 07:11 26.01865 53.26712 33874 ft 475 kts 112°
2026-04-20 07:11 25.99371 53.33453 33340 ft 466 kts 112°
2026-04-20 07:11 25.97743 53.37848 32618 ft 462 kts 112°
2026-04-20 07:12 25.96918 53.40072 32265 ft 460 kts 113°
2026-04-20 07:12 25.95702 53.43346 31766 ft 457 kts 113°
2026-04-20 07:12 25.94497 53.46589 31303 ft 452 kts 113°
2026-04-20 07:12 25.93320 53.49815 30775 ft 450 kts 112°
2026-04-20 07:13 25.92212 53.53065 30259 ft 448 kts 112°
2026-04-20 07:13 25.91100 53.56294 29730 ft 446 kts 112°
2026-04-20 07:13 25.89999 53.59484 29179 ft 442 kts 112°
2026-04-20 07:13 25.88899 53.62659 28715 ft 438 kts 112°
2026-04-20 07:14 25.87812 53.65795 28272 ft 434 kts 112°
2026-04-20 07:14 25.86729 53.68913 27811 ft 430 kts 112°
2026-04-20 07:14 25.85656 53.72005 27327 ft 428 kts 112°
2026-04-20 07:14 25.84603 53.75042 26839 ft 426 kts 112°
2026-04-20 07:15 25.83543 53.78098 26420 ft 423 kts 112°
2026-04-20 07:15 25.82491 53.81132 25975 ft 420 kts 112°
2026-04-20 07:15 25.81445 53.84142 25551 ft 418 kts 112°
2026-04-20 07:15 25.80402 53.87139 25119 ft 416 kts 112°
2026-04-20 07:16 25.79361 53.90133 24694 ft 414 kts 112°
2026-04-20 07:16 25.78326 53.93103 24273 ft 413 kts 112°
2026-04-20 07:16 25.77292 53.96071 23854 ft 411 kts 112°
2026-04-20 07:16 25.76261 53.99029 23433 ft 410 kts 112°
2026-04-20 07:17 25.75293 54.01999 22909 ft 410 kts 110°
2026-04-20 07:17 25.74386 54.04993 22434 ft 409 kts 110°
2026-04-20 07:17 25.73477 54.07965 22066 ft 404 kts 110°
2026-04-20 07:17 25.72574 54.10894 21690 ft 400 kts 110°
2026-04-20 07:18 25.71677 54.13802 21290 ft 398 kts 110°
2026-04-20 07:18 25.70780 54.16700 20890 ft 395 kts 110°
2026-04-20 07:18 25.69890 54.19576 20492 ft 393 kts 110°
2026-04-20 07:18 25.69006 54.22432 20093 ft 391 kts 110°
2026-04-20 07:19 25.68125 54.25271 19707 ft 389 kts 110°
2026-04-20 07:19 25.67246 54.28103 19307 ft 387 kts 110°
2026-04-20 07:19 25.66373 54.30914 18930 ft 385 kts 110°
2026-04-20 07:19 25.65504 54.33714 18529 ft 384 kts 110°
2026-04-20 07:20 25.64649 54.36474 18108 ft 383 kts 110°
2026-04-20 07:20 25.63785 54.39263 17679 ft 381 kts 110°
2026-04-20 07:20 25.62926 54.42029 17277 ft 378 kts 110°
2026-04-20 07:20 25.62074 54.44773 16896 ft 375 kts 110°
2026-04-20 07:21 25.61227 54.47498 16510 ft 372 kts 110°
2026-04-20 07:21 25.60387 54.50201 16140 ft 369 kts 109°
2026-04-20 07:21 25.59554 54.52879 15758 ft 367 kts 109°
2026-04-20 07:21 25.58726 54.55538 15392 ft 364 kts 109°
2026-04-20 07:22 25.58008 54.58221 14978 ft 363 kts 98°
2026-04-20 07:22 25.58064 54.60992 14626 ft 359 kts 81°
2026-04-20 07:22 25.58408 54.63710 14262 ft 356 kts 82°
2026-04-20 07:22 25.58742 54.66419 13917 ft 354 kts 82°
2026-04-20 07:23 25.59079 54.69109 13592 ft 350 kts 82°
2026-04-20 07:23 25.59413 54.71764 13239 ft 346 kts 82°
2026-04-20 07:23 25.59744 54.74392 12889 ft 343 kts 81°
2026-04-20 07:23 25.60073 54.76996 12547 ft 339 kts 81°
2026-04-20 07:24 25.60394 54.79566 12299 ft 333 kts 81°
2026-04-20 07:24 25.60705 54.82069 12147 ft 323 kts 81°
2026-04-20 07:24 25.61013 54.84498 12008 ft 314 kts 81°
2026-04-20 07:24 25.60984 54.86849 11824 ft 308 kts 103°
2026-04-20 07:25 25.60205 54.89030 11694 ft 300 kts 113°
2026-04-20 07:25 25.59394 54.91111 11581 ft 290 kts 112°
2026-04-20 07:25 25.58607 54.93145 11442 ft 287 kts 112°
2026-04-20 07:25 25.57816 54.95181 11303 ft 288 kts 112°
2026-04-20 07:26 25.57022 54.97219 11155 ft 288 kts 112°
2026-04-20 07:26 25.56232 54.99247 11008 ft 287 kts 112°
2026-04-20 07:26 25.55439 55.01280 10851 ft 287 kts 112°
2026-04-20 07:26 25.54641 55.03299 10707 ft 286 kts 115°
2026-04-20 07:27 25.53660 55.05216 10543 ft 286 kts 119°
2026-04-20 07:27 25.52654 55.07117 10404 ft 285 kts 119°
2026-04-20 07:27 25.51660 55.09021 10252 ft 285 kts 118°
2026-04-20 07:27 25.50687 55.10899 10111 ft 285 kts 118°
2026-04-20 07:28 25.49694 55.12823 9964 ft 284 kts 118°
2026-04-20 07:28 25.48727 55.14701 9814 ft 284 kts 118°
2026-04-20 07:28 25.47755 55.16593 9668 ft 283 kts 118°
2026-04-20 07:28 25.46780 55.18488 9499 ft 283 kts 118°
2026-04-20 07:29 25.45736 55.20327 9330 ft 283 kts 128°
2026-04-20 07:29 25.44418 55.21945 9143 ft 282 kts 132°
2026-04-20 07:29 25.43093 55.23549 8832 ft 282 kts 131°
2026-04-20 07:29 25.41777 55.25151 8549 ft 281 kts 131°
2026-04-20 07:30 25.40471 55.26749 8270 ft 279 kts 131°
2026-04-20 07:30 25.39177 55.28333 8032 ft 276 kts 131°
2026-04-20 07:30 25.37897 55.29904 7744 ft 275 kts 131°
2026-04-20 07:30 25.36623 55.31467 7477 ft 273 kts 131°
2026-04-20 07:31 25.35390 55.33063 7189 ft 272 kts 124°
2026-04-20 07:31 25.34399 55.34835 6920 ft 270 kts 120°
2026-04-20 07:31 25.33444 55.36588 6667 ft 269 kts 121°
2026-04-20 07:31 25.32501 55.38306 6506 ft 268 kts 121°
2026-04-20 07:32 25.31535 55.40055 6254 ft 267 kts 121°
2026-04-20 07:32 25.30563 55.41805 5983 ft 267 kts 121°
2026-04-20 07:32 25.29596 55.43544 5722 ft 265 kts 121°
2026-04-20 07:32 25.28627 55.45279 5449 ft 264 kts 121°
2026-04-20 07:33 25.27666 55.47001 5197 ft 261 kts 121°
2026-04-20 07:33 25.26703 55.48700 4840 ft 261 kts 121°
2026-04-20 07:33 25.25750 55.50382 4418 ft 259 kts 121°
2026-04-20 07:33 25.24801 55.52061 4027 ft 255 kts 121°
2026-04-20 07:34 25.23886 55.53688 3793 ft 244 kts 121°
2026-04-20 07:34 25.23022 55.55249 3579 ft 233 kts 121°
2026-04-20 07:34 25.21936 55.56497 3371 ft 221 kts 151°
2026-04-20 07:35 25.19171 55.56368 2915 ft 203 kts 209°
2026-04-20 07:35 25.17953 55.55575 2596 ft 203 kts 212°
2026-04-20 07:35 25.16754 55.54763 2311 ft 202 kts 213°
2026-04-20 07:35 25.15836 55.53640 2031 ft 196 kts 248°
2026-04-20 07:36 25.15695 55.52216 1985 ft 181 kts 283°
2026-04-20 07:36 25.16293 55.51096 1911 ft 166 kts 321°
2026-04-20 07:36 25.17200 55.50322 1983 ft 165 kts 317°
2026-04-20 07:36 25.17973 55.49385 1988 ft 167 kts 308°
2026-04-20 07:37 25.18654 55.48351 1751 ft 166 kts 303°
2026-04-20 07:37 25.19269 55.47302 1620 ft 165 kts 301°
2026-04-20 07:37 25.19867 55.46225 1397 ft 164 kts 301°
2026-04-20 07:37 25.20453 55.45167 1197 ft 157 kts 301°
2026-04-20 07:38 25.21011 55.44161 993 ft 152 kts 301°
2026-04-20 07:38 25.21557 55.43171 797 ft 150 kts 301°
2026-04-20 07:38 25.22103 55.42186 628 ft 151 kts 300°
2026-04-20 07:38 25.22649 55.41191 422 ft 151 kts 300°
2026-04-20 07:39 25.23189 55.40201 222 ft 149 kts 301°
2026-04-20 07:39 25.23735 55.39223 46 ft 149 kts 301°
2026-04-20 07:39 25.24220 55.38350 28 ft 107 kts 301°
2026-04-20 07:39 25.24484 55.37871 26 ft 42 kts 301°
2026-04-20 07:40 25.24643 55.37583 25 ft 46 kts 301°
2026-04-20 07:40 25.24776 55.37290 26 ft 38 kts 278°
2026-04-20 07:40 25.24782 55.37043 24 ft 21 kts 272°
2026-04-20 07:40 25.24831 55.36887 24 ft 22 kts 297°
2026-04-20 07:41 25.24876 55.36721 26 ft 23 kts 284°
2026-04-20 07:41 25.24952 55.36559 24 ft 25 kts 302°
2026-04-20 07:41 25.25047 55.36391 25 ft 27 kts 302°
2026-04-20 07:41 25.25148 55.36211 24 ft 28 kts 301°
2026-04-20 07:42 25.25253 55.36023 23 ft 28 kts 302°
2026-04-20 07:42 25.25358 55.35838 26 ft 29 kts 302°
2026-04-20 07:42 25.25466 55.35644 24 ft 30 kts 302°
2026-04-20 07:42 25.25570 55.35460 24 ft 28 kts 302°
2026-04-20 07:43 25.25674 55.35275 25 ft 29 kts 302°
2026-04-20 07:43 25.25779 55.35087 25 ft 26 kts 301°
2026-04-20 07:43 25.25876 55.34909 24 ft 28 kts 302°
2026-04-20 07:43 25.25981 55.34722 25 ft 27 kts 302°
2026-04-20 07:44 25.26038 55.34631 24 ft 10 kts 323°
2026-04-20 07:44 25.26104 55.34644 26 ft 11 kts 40°
2026-04-20 07:44 25.26163 55.34714 24 ft 14 kts 47°
2026-04-20 07:44 25.26238 55.34782 26 ft 12 kts 21°
2026-04-20 07:45 25.26306 55.34739 26 ft 13 kts 302°
2026-04-20 07:45 25.26360 55.34643 25 ft 16 kts 302°
2026-04-20 07:45 25.26425 55.34541 24 ft 14 kts 324°
2026-04-20 07:45 25.26500 55.34493 24 ft 13 kts 304°
2026-04-20 07:46 25.26553 55.34398 26 ft 16 kts 302°
2026-04-20 07:46 25.26615 55.34289 25 ft 16 kts 302°
2026-04-20 07:46 25.26651 55.34241 26 ft 6 kts 349°
2026-04-20 07:46 25.26689 55.34261 24 ft 7 kts 31°
2026-04-20 07:47 25.26715 55.34279 24 ft 1 kts 31°
2026-04-20 07:47 25.26719 55.34281 24 ft 0 kts 31°